Flag Weather past 2 weeks in Wittenberge, Mecklenburg-Western Pomerania, Germany

Now
43 °F

Overcast.


Feels Like: 42 °F
Forecast: 35 / 45 °F
Wind: 3 mph from Southeast

Location: Marnitz

Current Time: Nov 24, 2014 at 5:19:00 AM

Latest Report: Nov 24, 2014 at 4:00 AM


Visibility: 9 mi

Pressure: 29.98 "Hg

Humidity: 81%

Dew point: 38 °F

Location of WittenbergeLocation

Historic Weather in Wittenberge — Graph

°F

Wittenberge temperature yesterday

Maximum temperature yesterday: 45 °F (at 2:00 PM)
Minimum temperature yesterday: 39 °F (at 5:00 AM)
Average temperature yesterday: 42 °F

Past Weeks' High & Low Weather Summary

 TemperatureHumidityPressure
High54 °F (Nov 14, 2:00 PM)100% (Nov 9, 5:00 AM)30.37 "Hg (Nov 9, 5:00 AM)
Low34 °F (Nov 21, 11:00 PM)72% (Nov 9, 12:00 PM)29.57 "Hg (Nov 16, 3:00 PM)
Average44 °F93%29.97 "Hg
* Reported Nov 9 4:00 AM — Nov 24 4:00 AM, Wittenberge, Weather by CustomWeather, © 2014

Note: Actual official high and low records may vary slightly from our data, if they occured in-between our weather recording intervals... More about our weather records

Advertising

Wittenberge weather history for previous 24 hours

 ConditionsComfort  
Time TempWeatherWind HumidityBarometerVisibility
4:00 AM
Nov 24
43 °FOvercast.3 mph81%29.98 "Hg9 mi
3:00 AM43 °FOvercast.5 mph81%30.00 "Hg8 mi
2:00 AM43 °FOvercast.6 mph83%29.99 "Hg7 mi
1:00 AM42 °FPassing clouds.7 mph84%30.02 "Hg6 mi
12:00 AM43 °FOvercast.6 mph84%30.03 "Hg6 mi
11:00 PM
Nov 23
43 °FOvercast.6 mph86%30.06 "Hg6 mi
10:00 PM43 °FPassing clouds.5 mph85%30.08 "Hg6 mi
9:00 PM44 °FOvercast.6 mph84%30.08 "Hg6 mi
8:00 PM44 °FOvercast.6 mph84%30.09 "Hg6 mi
7:00 PM44 °FPassing clouds.7 mph83%30.10 "Hg6 mi
6:00 PM44 °FOvercast.6 mph84%30.12 "Hg6 mi
5:00 PM44 °FOvercast.5 mph86%30.13 "Hg5 mi
4:00 PM45 °FPartly sunny.5 mph86%30.13 "Hg5 mi
3:00 PM45 °FPartly sunny.3 mph84%30.14 "Hg5 mi
2:00 PM45 °FPassing clouds.5 mph82%30.14 "Hg5 mi
1:00 PM44 °FFog.5 mph83%30.17 "Hg4 mi
12:00 PM43 °FOvercast.6 mph82%30.19 "Hg5 mi
11:00 AM42 °FOvercast.5 mph86%30.21 "Hg5 mi
10:00 AM40 °FFog.5 mph87%30.21 "Hg4 mi
9:00 AM39 °FFog.5 mph90%30.21 "Hg4 mi
8:00 AM39 °FFog.6 mph90%30.20 "Hg4 mi
7:00 AM39 °FFog.5 mph90%30.19 "Hg4 mi
6:00 AM39 °FFog.5 mph90%30.19 "Hg4 mi
5:00 AM39 °FFog.5 mph91%30.18 "Hg4 mi
Weather by CustomWeather, © 2014

See weather overviewHow to use our weather pages